User: anonymous   Login
Location: Lake Superior Provincial Park
(47.3335°N, 84.6162°W)
Time: 05:52:12
(UTC-05:00)
Language:

Cosmos 2333 Rocket - Orbit

View from above orbital plane
View from above orbital plane
View from above satellite
View from above satellite

Ground track
Ground track

The orbit data is extracted from the following two-line orbital elements,

1 24298U 96051B   14327.21541213 -.00000158  00000-0 -59116-4 0  6058
2 24298 070.8590 237.0522 0014279 142.9936 327.5940 14.12454519939528
Epoch (UTC): 23 November 2014 05:10:11
Eccentricity: 0.0014279
inclination: 70.8590°
perigee height: 840 km
apogee height: 861 km
right ascension of ascending node: 237.0522°
argument of perigee: 142.9936°
revolutions per day: 14.12454519
mean anomaly at epoch: 327.5940°
orbit number at epoch: 93952

The dashed part of the orbit path shows where the satellite is in the earth's shadow,  

DLR